Time,TemperatureF,DewpointF,PressureIn,WindDirection,WindDirectionDegrees,WindSpeedMPH,WindSpeedGustMPH,Humidity,HourlyPrecipIn,Conditions,Clouds,dailyrainin,SolarRadiationWatts/m^2,SoftwareType,DateUTC
2013-06-25 00:02:00,58.0,58.0,-100.00,NNE,33,1.0,5.0,100,0.00,,,0.09,0.000000,,2013-06-25 07:02:00,
2013-06-25 00:11:00,58.0,58.0,-100.00,NNE,33,1.0,5.0,100,0.00,,,0.09,0.000000,,2013-06-25 07:11:00,
2013-06-25 00:22:00,58.0,58.0,-100.00,NNE,33,1.0,5.0,100,0.00,,,0.09,0.000000,,2013-06-25 07:22:00,
2013-06-25 00:52:00,58.0,58.0,-100.00,ESE,123,5.0,10.0,100,0.00,,,0.09,0.000000,,2013-06-25 07:52:00,
2013-06-25 01:01:00,58.0,58.0,-100.00,ESE,123,5.0,10.0,100,0.00,,,0.09,0.000000,,2013-06-25 08:01:00,
2013-06-25 01:11:00,58.0,58.0,-100.00,ESE,123,5.0,10.0,100,0.00,,,0.09,0.000000,,2013-06-25 08:11:00,
2013-06-25 01:21:00,58.0,58.0,-100.00,ESE,123,5.0,10.0,100,0.00,,,0.09,0.000000,,2013-06-25 08:21:00,
2013-06-25 01:53:00,58.0,55.0,-100.00,SE,136,10.0,19.0,91,0.00,,,0.09,0.000000,,2013-06-25 08:53:00,
2013-06-25 02:02:00,58.0,55.0,-100.00,SE,136,10.0,19.0,91,0.00,,,0.09,0.000000,,2013-06-25 09:02:00,
2013-06-25 02:12:00,58.0,55.0,-100.00,SE,136,10.0,19.0,91,0.00,,,0.09,0.000000,,2013-06-25 09:12:00,
2013-06-25 02:21:00,58.0,55.0,-100.00,SE,136,10.0,19.0,91,0.00,,,0.09,0.000000,,2013-06-25 09:21:00,
2013-06-25 02:53:00,58.0,55.0,-100.00,ENE,67,2.0,16.0,90,0.00,,,0.09,0.000000,,2013-06-25 09:53:00,
2013-06-25 03:01:00,58.0,55.0,-100.00,ENE,67,2.0,16.0,90,0.00,,,0.09,0.000000,,2013-06-25 10:01:00,
2013-06-25 03:11:00,58.0,55.0,-100.00,ENE,67,2.0,16.0,90,0.00,,,0.09,0.000000,,2013-06-25 10:11:00,
2013-06-25 03:21:00,58.0,55.0,-100.00,ENE,67,2.0,16.0,90,0.00,,,0.09,0.000000,,2013-06-25 10:21:00,
2013-06-25 03:52:00,57.0,57.0,-100.00,NW,306,1.0,5.0,100,0.01,,,0.10,0.000000,,2013-06-25 10:52:00,
2013-06-25 04:02:00,57.0,57.0,-100.00,NW,306,1.0,5.0,100,0.01,,,0.10,0.000000,,2013-06-25 11:02:00,
2013-06-25 04:11:00,57.0,57.0,-100.00,NW,306,1.0,5.0,100,0.01,,,0.10,0.000000,,2013-06-25 11:11:00,
2013-06-25 04:21:00,57.0,57.0,-100.00,NW,306,1.0,5.0,100,0.01,,,0.10,0.000000,,2013-06-25 11:21:00,
2013-06-25 04:52:00,60.0,59.0,-100.00,WNW,296,5.0,11.0,97,0.00,,,0.10,0.000000,,2013-06-25 11:52:00,
2013-06-25 05:01:00,60.0,59.0,-100.00,WNW,296,5.0,11.0,97,0.00,,,0.10,0.000000,,2013-06-25 12:01:00,
2013-06-25 05:11:00,60.0,59.0,-100.00,WNW,296,5.0,11.0,97,0.00,,,0.10,0.000000,,2013-06-25 12:11:00,
2013-06-25 05:22:00,60.0,59.0,-100.00,WNW,296,5.0,11.0,97,0.00,,,0.10,0.000000,,2013-06-25 12:22:00,
2013-06-25 05:55:00,60.0,59.0,-100.00,SSW,211,2.0,11.0,95,0.00,,,0.10,0.000000,,2013-06-25 12:55:00,
2013-06-25 06:01:00,60.0,59.0,-100.00,SSW,211,2.0,11.0,95,0.00,,,0.10,0.000000,,2013-06-25 13:01:00,
2013-06-25 06:11:00,60.0,59.0,-100.00,SSW,211,2.0,11.0,95,0.00,,,0.10,0.000000,,2013-06-25 13:11:00,
2013-06-25 06:22:00,60.0,59.0,-100.00,SSW,211,2.0,11.0,95,0.00,,,0.10,0.000000,,2013-06-25 13:22:00,
2013-06-25 07:01:00,61.0,59.0,-100.00,NE,47,2.0,10.0,93,0.00,,,0.10,2.000000,,2013-06-25 14:01:00,
2013-06-25 07:11:00,61.0,59.0,-100.00,NE,47,2.0,10.0,93,0.00,,,0.10,2.000000,,2013-06-25 14:11:00,
2013-06-25 07:22:00,61.0,59.0,-100.00,NE,47,2.0,10.0,93,0.00,,,0.10,2.000000,,2013-06-25 14:22:00,
2013-06-25 07:53:00,62.0,61.0,-100.00,WSW,252,2.0,8.0,97,0.00,,,0.10,21.000000,,2013-06-25 14:53:00,
2013-06-25 08:01:00,62.0,61.0,-100.00,WSW,252,2.0,8.0,97,0.00,,,0.10,21.000000,,2013-06-25 15:01:00,
2013-06-25 08:11:00,62.0,61.0,-100.00,WSW,252,2.0,8.0,97,0.00,,,0.10,21.000000,,2013-06-25 15:11:00,
2013-06-25 08:22:00,62.0,61.0,-100.00,WSW,252,2.0,8.0,97,0.00,,,0.10,21.000000,,2013-06-25 15:22:00,
2013-06-25 09:23:00,69.0,65.0,-100.00,West,263,6.0,14.0,87,0.00,,,0.10,299.000000,,2013-06-25 16:23:00,
2013-06-25 09:52:00,66.0,60.0,-100.00,NW,304,5.0,13.0,80,0.00,,,0.10,213.000000,,2013-06-25 16:52:00,
2013-06-25 10:01:00,66.0,60.0,-100.00,NW,304,5.0,13.0,80,0.00,,,0.10,213.000000,,2013-06-25 17:01:00,
2013-06-25 10:11:00,66.0,60.0,-100.00,NW,304,5.0,13.0,80,0.00,,,0.10,213.000000,,2013-06-25 17:11:00,
2013-06-25 10:22:00,66.0,60.0,-100.00,NW,304,5.0,13.0,80,0.00,,,0.10,213.000000,,2013-06-25 17:22:00,
2013-06-25 11:02:00,65.0,63.0,-100.00,West,271,6.0,19.0,93,0.00,,,0.10,82.000000,,2013-06-25 18:02:00,
2013-06-25 11:12:00,65.0,63.0,-100.00,West,271,6.0,19.0,93,0.00,,,0.10,82.000000,,2013-06-25 18:12:00,
2013-06-25 11:22:00,65.0,63.0,-100.00,West,271,6.0,19.0,93,0.00,,,0.10,82.000000,,2013-06-25 18:22:00,
2013-06-25 11:53:00,65.0,60.0,-100.00,SW,227,6.0,14.0,85,0.00,,,0.10,96.000000,,2013-06-25 18:53:00,
2013-06-25 12:01:00,65.0,60.0,-100.00,SW,227,6.0,14.0,85,0.00,,,0.10,96.000000,,2013-06-25 19:01:00,
2013-06-25 12:12:00,65.0,60.0,-100.00,SW,227,6.0,14.0,85,0.00,,,0.10,96.000000,,2013-06-25 19:12:00,
2013-06-25 12:22:00,65.0,60.0,-100.00,SW,227,6.0,14.0,85,0.00,,,0.10,96.000000,,2013-06-25 19:22:00,
2013-06-25 12:54:00,66.0,61.0,-100.00,West,263,6.0,17.0,83,0.00,,,0.09,175.000000,,2013-06-25 19:54:00,
2013-06-25 13:01:00,66.0,61.0,-100.00,West,263,6.0,17.0,83,0.00,,,0.09,175.000000,,2013-06-25 20:01:00,
2013-06-25 13:11:00,66.0,61.0,-100.00,West,263,6.0,17.0,83,0.00,,,0.09,175.000000,,2013-06-25 20:11:00,
2013-06-25 13:22:00,66.0,61.0,-100.00,West,263,6.0,17.0,83,0.00,,,0.09,175.000000,,2013-06-25 20:22:00,
2013-06-25 13:52:00,65.0,63.0,-100.00,SW,230,4.0,17.0,93,0.03,,,0.09,208.000000,,2013-06-25 20:52:00,
2013-06-25 14:01:00,65.0,63.0,-100.00,SW,230,4.0,17.0,93,0.03,,,0.09,208.000000,,2013-06-25 21:01:00,
2013-06-25 14:11:00,65.0,63.0,-100.00,SW,230,4.0,17.0,93,0.03,,,0.09,208.000000,,2013-06-25 21:11:00,
2013-06-25 14:22:00,65.0,63.0,-100.00,SW,230,4.0,17.0,93,0.03,,,0.09,208.000000,,2013-06-25 21:22:00,
2013-06-25 14:53:00,68.0,64.0,-100.00,West,275,13.0,22.0,87,0.01,,,0.08,445.000000,,2013-06-25 21:53:00,
2013-06-25 15:01:00,68.0,64.0,-100.00,West,275,13.0,22.0,87,0.01,,,0.08,445.000000,,2013-06-25 22:01:00,
2013-06-25 15:11:00,68.0,64.0,-100.00,West,275,13.0,22.0,87,0.01,,,0.08,445.000000,,2013-06-25 22:11:00,
2013-06-25 15:22:00,68.0,64.0,-100.00,West,275,13.0,22.0,87,0.01,,,0.08,445.000000,,2013-06-25 22:22:00,
2013-06-25 15:52:00,69.0,61.0,-100.00,West,271,13.0,22.0,77,0.00,,,0.07,688.000000,,2013-06-25 22:52:00,
2013-06-25 16:01:00,69.0,61.0,-100.00,West,271,13.0,22.0,77,0.00,,,0.07,688.000000,,2013-06-25 23:01:00,
2013-06-25 16:11:00,69.0,61.0,-100.00,West,271,13.0,22.0,77,0.00,,,0.07,688.000000,,2013-06-25 23:11:00,
2013-06-25 16:22:00,69.0,61.0,-100.00,West,271,13.0,22.0,77,0.00,,,0.07,688.000000,,2013-06-25 23:22:00,
2013-06-25 16:52:00,71.0,63.0,-100.00,West,272,17.0,26.0,76,0.00,,,0.07,430.000000,,2013-06-25 23:52:00,
2013-06-25 17:02:00,71.0,63.0,-100.00,West,272,17.0,26.0,76,0.00,,,0.07,430.000000,,2013-06-26 00:02:00,
2013-06-25 17:11:00,71.0,63.0,-100.00,West,272,17.0,26.0,76,0.00,,,0.07,430.000000,,2013-06-26 00:11:00,
2013-06-25 17:22:00,71.0,63.0,-100.00,West,272,17.0,26.0,76,0.00,,,0.07,430.000000,,2013-06-26 00:22:00,
2013-06-25 18:53:00,70.0,64.0,-100.00,West,275,19.0,25.0,81,0.00,,,0.06,236.000000,,2013-06-26 01:53:00,
2013-06-25 19:02:00,70.0,64.0,-100.00,West,275,19.0,25.0,81,0.00,,,0.06,236.000000,,2013-06-26 02:02:00,
2013-06-25 19:11:00,70.0,64.0,-100.00,West,275,19.0,25.0,81,0.00,,,0.06,236.000000,,2013-06-26 02:11:00,
2013-06-25 19:22:00,70.0,64.0,-100.00,West,275,19.0,25.0,81,0.00,,,0.06,236.000000,,2013-06-26 02:22:00,
2013-06-25 19:53:00,66.0,62.0,-100.00,West,275,18.0,27.0,87,0.00,,,0.06,141.000000,,2013-06-26 02:53:00,
2013-06-25 20:02:00,66.0,62.0,-100.00,West,275,18.0,27.0,87,0.00,,,0.06,141.000000,,2013-06-26 03:02:00,
2013-06-25 20:11:00,66.0,62.0,-100.00,West,275,18.0,27.0,87,0.00,,,0.06,141.000000,,2013-06-26 03:11:00,
2013-06-25 20:22:00,66.0,62.0,-100.00,West,275,18.0,27.0,87,0.00,,,0.06,141.000000,,2013-06-26 03:22:00,
2013-06-25 20:52:00,63.0,60.0,-100.00,West,276,10.0,21.0,90,0.00,,,0.06,70.000000,,2013-06-26 03:52:00,
2013-06-25 21:01:00,63.0,60.0,-100.00,West,276,10.0,21.0,90,0.00,,,0.06,70.000000,,2013-06-26 04:01:00,
2013-06-25 21:12:00,63.0,60.0,-100.00,West,276,10.0,21.0,90,0.00,,,0.06,70.000000,,2013-06-26 04:12:00,
2013-06-25 21:22:00,63.0,60.0,-100.00,West,276,10.0,21.0,90,0.00,,,0.06,70.000000,,2013-06-26 04:22:00,
2013-06-25 21:53:00,60.0,59.0,-100.00,West,274,12.0,20.0,98,0.00,,,0.05,1.000000,,2013-06-26 04:53:00,
2013-06-25 22:02:00,60.0,59.0,-100.00,West,274,12.0,20.0,98,0.00,,,0.05,1.000000,,2013-06-26 05:02:00,
2013-06-25 22:11:00,60.0,59.0,-100.00,West,274,12.0,20.0,98,0.00,,,0.05,1.000000,,2013-06-26 05:11:00,
2013-06-25 22:21:00,60.0,59.0,-100.00,West,274,12.0,20.0,98,0.00,,,0.05,1.000000,,2013-06-26 05:21:00,
2013-06-25 22:52:00,60.0,60.0,-100.00,West,263,9.0,15.0,100,0.00,,,0.05,0.000000,,2013-06-26 05:52:00,
2013-06-25 23:01:00,60.0,60.0,-100.00,West,263,9.0,15.0,100,0.00,,,0.05,0.000000,,2013-06-26 06:01:00,
2013-06-25 23:11:00,60.0,60.0,-100.00,West,263,9.0,15.0,100,0.00,,,0.05,0.000000,,2013-06-26 06:11:00,
2013-06-25 23:22:00,60.0,60.0,-100.00,West,263,9.0,15.0,100,0.00,,,0.05,0.000000,,2013-06-26 06:22:00,
2013-06-25 23:53:00,60.0,60.0,-100.00,West,271,9.0,14.0,100,0.00,,,0.05,0.000000,,2013-06-26 06:53:00,